Regional Weather Roundup
Issued by NWS

Home | Current Version | Previous Version | Text Only | Print | Product List | Glossary Off
Versions: 1 2 3 4 5 6 7 8 9 10 11 12 13 14 15 16 17 18 19 20 21 22 23 24 25 26 27 28 29 30 31 32 33 34 35 36 37 38 39 40 41 42 43 44 45 46 47 48 49 50

139
ASUS43 KMKX 130220
RWRWI

WISCONSIN REGIONAL WEATHER ROUNDUP
NATIONAL WEATHER SERVICE MILWAUKEE/SULLIVAN WI
800 PM CST TUE DEC 12 2017

NOTE: "FAIR" INDICATES FEW OR NO CLOUDS BELOW 12,000 FEET WITH NO
SIGNIFICANT WEATHER AND/OR OBSTRUCTIONS TO VISIBILITY.

WIZ001-002-006>008-014>016-023>028-130300-
NORTHWEST WISCONSIN

CITY           SKY/WX    TMP DP  RH WIND       PRES   REMARKS
SUPERIOR ARPT  FLURRIES  14  10  83 CALM      29.85F
ASHLAND        LGT SNOW  12   7  80 S5        29.87F WCI   4
HAYWARD        FLURRIES  12   6  77 S7        29.82F WCI   1
SIREN          CLOUDY    15  10  79 S6        29.81F WCI   6
CUMBERLAND     CLOUDY    12   9  85 SE8       29.82F WCI   1
RICE LAKE      CLOUDY    14  10  85 CALM      29.86F
CHETEK         CLOUDY    13   9  85 SE5       29.86F WCI   5
LADYSMITH      LGT SNOW  13   8  79 S7        29.88F WCI   3
EAU CLAIRE     CLOUDY    15  10  80 SE7       29.87F WCI   5
MENOMONIE      CLOUDY    17  11  79 SE9       29.87F WCI   5
NEW RICHMOND   CLOUDY    18  12  75 S8        29.82F WCI   8
OSCEOLA        CLOUDY    19  13  78 SE7       29.84F WCI  10
$$

WIZ003>005-009-010-017-018-130300-
NORTH CENTRAL WISCONSIN

CITY           SKY/WX    TMP DP  RH WIND       PRES   REMARKS
MANITOWISH WTR CLOUDY     9   1  69 S5        29.82F WCI   1
ARBOR VITAE    CLOUDY    11   3  68 S3        29.82F
WOODRUFF       CLOUDY    11   3  68 S3        29.82F
RHINELANDER    CLOUDY    11   1  64 SW3       29.85F
EAGLE RIVER    CLOUDY     8   2  77 CALM      29.84S
LAND O LAKES   CLOUDY     6   2  85 CALM      29.85F
PHILLIPS       LGT SNOW  10   4  76 S3        29.84F
TOMAHAWK       CLOUDY    12  -1  57 CALM      29.86F
MEDFORD        LGT SNOW  11   4  73 S5        29.86F WCI   3
MERRILL        CLOUDY    12   2  62 SW5       29.89F WCI   5
$$

WIZ029-030-035-036-043>047-130300-
CENTRAL WISCONSIN

CITY           SKY/WX    TMP DP  RH WIND       PRES   REMARKS
WAUSAU         CLOUDY    12   0  58 SW5       29.89F WCI   4
MOSINEE        CLOUDY    12   1  62 S3        29.91F
MARSHFIELD     CLOUDY    13   3  64 SW7       29.88F WCI   3
STEVENS POINT  CLOUDY    12   0  58 SW3       29.93S
WAUPACA        CLOUDY    17   3  55 SW3       29.95F
WAUTOMA        CLOUDY    15   3  59 CALM      29.96F
WISC RAPIDS    CLOUDY    15   2  56 SW5       29.94F WCI   8
CAMP DOUGLAS   FLURRIES  18   5  57 CALM      29.93F
$$

WIZ011>013-019>022-031-037>040-048>050-130300-
NORTHEAST WISCONSIN

CITY           SKY/WX    TMP DP  RH WIND       PRES   REMARKS
ANTIGO         CLOUDY    11   1  63 SW7       29.87S WCI   0
SHAWANO        CLOUDY    17   3  56 W3        29.94F
OCONTO         CLOUDY     6   1  82 CALM      29.94F
STURGEON BAY   CLOUDY    15   5  64 VRB7      29.94F WCI   5
GREEN BAY      CLOUDY    15   3  59 W7        29.95F WCI   5
MANITOWOC      CLOUDY    12   5  73 W6        29.96F WCI   3
APPLETON       CLOUDY    14   0  52 W5        29.92F WCI   6
CLINTONVILLE   CLOUDY    16   0  48 W9        29.94F WCI   4
OSHKOSH        CLOUDY    15   2  56 W5        29.94F WCI   8
$$

WIZ032>034-041-042-053>061-130300-
SOUTHWEST WISCONSIN

CITY           SKY/WX    TMP DP  RH WIND       PRES   REMARKS
LA CROSSE      CLOUDY    23  11  60 S7        29.92F WCI  15
SPARTA         CLOUDY    19   9  65 CALM      29.93F
VIROQUA        CLOUDY    19  10  69 S5        29.90F WCI  12
BOSCOBEL       CLOUDY    24   9  52 S3        29.96F
PRAIRIE DU CHI CLOUDY    25   7  46 S5        29.96F WCI  19
PLATTEVILLE    CLOUDY    23  12  63 SW6       29.96F WCI  16
$$

WIZ056-057-062-063-064-067-068-130300-
SOUTH CENTRAL WISCONSIN

CITY           SKY/WX    TMP DP  RH WIND       PRES   REMARKS
REEDSBURG      FLURRIES  18   5  55 S5        29.94F WCI  11
BARABOO/DELLS  CLOUDY    19   2  49 SW5       29.94F WCI  12
LONE ROCK      CLOUDY    20   9  62 CALM      29.97F
MINERAL POINT  CLOUDY    23  10  58 SW5       29.94F WCI  17
MADISON        CLOUDY    19   3  49 CALM      29.96F
MIDDLETON      CLOUDY    21   4  48 W6        29.96F WCI  13
WATERTOWN      CLOUDY    16   4  58 CALM      29.96F
MONROE         CLOUDY    21   5  49 SW10      29.95F WCI  10
JANESVILLE     CLOUDY    21   3  45 CALM      29.97F
$$

WIZ051-052-058>065-066-070>072-130300-
SOUTHEAST WISCONSIN

CITY           SKY/WX    TMP DP  RH WIND       PRES   REMARKS
MILWAUKEE      CLOUDY    20   3  48 NW10      29.97F WCI   9
WAUKESHA       CLOUDY    16   1  53 W9        29.96F WCI   4
MILWAUKEE/TIMM CLOUDY    18  -2  41 W6        29.98F WCI   9
RACINE         CLOUDY    17   4  56 NW3       29.99F
BURLINGTON       N/A    N/A N/A N/A MISG        N/A
KENOSHA        CLOUDY    18   4  54 W8        29.97F WCI   8
FOND DU LAC    CLOUDY    16   2  54 SW3       29.95F
SHEBOYGAN      CLOUDY    15   3  59 NW9       29.95F WCI   3
WEST BEND      CLOUDY    16   1  53 W6        29.95S WCI   7
JUNEAU         CLOUDY    14   3  59 CALM      29.95F
$$

LSZ147-162-130300-
LAKE SUPERIOR

STATION/POSITION TIME  TEMP    WIND        PRES    WAVE
                       AIR SEA DIR/SP/G            HT/PER
                 (UTC) (F)     (DEG/KT/KT) (MB)    (FT/S)
DEVILS ISLAND    0200   15     180/  7/ 11 1012.6F
SAXON HARBOR     0140   14                 1011.9F
$$

LMZ867-665-643>646-130300-
LAKE MICHIGAN

STATION/POSITION TIME  TEMP    WIND        PRES    WAVE
                       AIR SEA DIR/SP/G            HT/PER
                 (UTC) (F)     (DEG/KT/KT) (MB)    (FT/S)
NORTHPORT PIER   0138   17     340/  9/ 16 1013.9F
KEWAUNEE LAKESHO 0154   12     310/  2/  3 1013.4F
SHEBOYGAN LAKESH 0200   16     300/  8/  9 1015.7F
PORT WASHINGTON  0140   18     310/  5/  7 1016.3S
MILWAUKEE LAKESH 0200   19     300/  7/  9   N/A
KENOSHA   LAKESH 0200   18     290/  6/  9 1015.2
$$

TC  - TEMPERATURE IN CELSIUS
VSB - VISIBILITY IN STATUTE MILES
WCI - WIND CHILL INDEX
HX  - HEAT INDEX





USA.gov is the U.S. government's official web portal to all federal, state and local government web resources and services.